Location: De Har
(53.3413°N, 6.6858°E)
Time: 07:43:11
(UTC+00:00)

H-2A R/B - Pass Details

Date: 22 April 2026
Orbit: 549 x 612 km, 98.5° (Epoch: 14 May)

Event Time Altitude Azimuth Distance (km) Brightness Sun altitude
Rises 02:39:00 0° 25° (NNE) 2,781 6.8 -13.3°
Reaches altitude 10° 02:41:33 10° 41° (NE) 1,868 6.0 -13.0°
Maximum altitude 02:44:44 22° 93° (E) 1,242 4.2 -12.7°
Drops below altitude 10° 02:47:53 10° 146° (SE) 1,834 4.4 -12.3°
Sets 02:50:21 0° 162° (SSE) 2,717 5.1 -12.1°
